Naples, FL

1:13 PM EDT on March 29, 2017 (GMT -0400)
Naples Municipal

Weather History for KAPF - May, 2013

Change the Weather History Date:

Wednesday, May 22, 2013

  Actual Average Record
Temperature  
Mean Temperature 78 °F 79 °F  
Max Temperature 86 °F 89 °F 93 °F (2011)
Min Temperature 70 °F 70 °F 59 °F (1981)
Degree Days  
Heating Degree Days 0 0  
Month to date heating degree days 0 0  
Since 1 July heating degree days 182 260  
Cooling Degree Days 13 14  
Month to date cooling degree days 237 275  
Year to date cooling degree days 974 895  
Growing Degree Days 28 (Base 50)    
Moisture  
Dew Point 70 °F    
Average Humidity 79    
Maximum Humidity 97    
Minimum Humidity 61    
Precipitation  
Precipitation 0.00 in 0.13 in 1.73 in (1946)
Month to date precipitation 2.06 1.90  
Year to date precipitation 8.93 10.59  
Snow  
Snow 0.00 in - - ()
Month to date snowfall 0.0  
Since 1 July snowfall 0.0  
Snow Depth 0.00 in    
Sea Level Pressure  
Sea Level Pressure 29.93 in    
Wind  
Wind Speed 6 mph (North)    
Max Wind Speed 14 mph    
Max Gust Speed 18 mph    
Visibility 10 miles    
Events      
T = Trace of Precipitation, MM = Missing Value Source: NWS Daily Summary

Daily Weather History Graph

Daily Weather History Graph

Search for Another Location

Airport or City:

Trip Planner

Search our weather history database for the weather conditions in past years. The results will help you decide how hot, cold, wet, or windy it might be!

Date:

Astronomy

May. 22, 2013 Rise Set
Actual Time 6:37 AM EDT 8:10 PM EDT
Civil Twilight 6:12 AM EDT 8:35 PM EDT
Nautical Twilight 5:41 AM EDT 9:06 PM EDT
Astronomical Twilight 5:10 AM EDT 9:37 PM EDT
Moon 5:43 PM EDT (5/22) 4:25 AM EDT (5/22)
Length of Visible Light 14h 23m
Length of Day
13h 32m
Waxing Gibbous, 91% of the Moon is Illuminated
May 22
Waxing Gibbous
May 25
Full
May 31
Last Quarter
Jun 8
New
Jun 16
First Quarter

Hourly Weather History & Observations

Time (EDT) Temp. Heat Index Dew Point Humidity Pressure Visibility Wind Dir Wind Speed Gust Speed Precip Events Conditions
12:53 AM 71.1 °F - 68.0 °F 90% 29.93 in 10.0 mi ENE 6.9 mph - N/A   Clear
1:53 AM 70.0 °F - 68.0 °F 93% 29.93 in 10.0 mi NE 4.6 mph - N/A   Clear
2:31 AM 69.8 °F - 68.0 °F 94% 29.92 in 10.0 mi ENE 5.8 mph - N/A   Mostly Cloudy
2:53 AM 70.0 °F - 68.0 °F 93% 29.92 in 10.0 mi ENE 5.8 mph - N/A   Mostly Cloudy
3:00 AM 69.8 °F - 68.0 °F 94% 29.92 in 10.0 mi East 4.6 mph - N/A   Partly Cloudy
3:53 AM 71.1 °F - 69.1 °F 93% 29.91 in 10.0 mi ENE 4.6 mph - N/A   Clear
4:53 AM 71.1 °F - 69.1 °F 93% 29.91 in 10.0 mi East 3.5 mph - N/A   Clear
5:53 AM 71.1 °F - 69.1 °F 93% 29.91 in 10.0 mi East 4.6 mph - N/A   Clear
6:53 AM 71.1 °F - 70.0 °F 96% 29.92 in 9.0 mi Calm Calm - N/A   Clear
7:53 AM 73.9 °F - 71.1 °F 91% 29.93 in 9.0 mi ESE 4.6 mph - N/A   Clear
8:53 AM 78.1 °F - 72.0 °F 81% 29.94 in 10.0 mi Variable 4.6 mph - N/A   Clear
9:53 AM 82.0 °F 86.7 °F 72.0 °F 71% 29.94 in 10.0 mi South 3.5 mph - N/A   Partly Cloudy
10:53 AM 82.9 °F 87.5 °F 71.1 °F 67% 29.96 in 10.0 mi WSW 5.8 mph - N/A   Scattered Clouds
11:53 AM 84.9 °F 90.7 °F 72.0 °F 65% 29.96 in 10.0 mi West 9.2 mph - N/A   Scattered Clouds
12:53 PM 84.9 °F 90.1 °F 71.1 °F 63% 29.96 in 10.0 mi WSW 13.8 mph 17.3 mph N/A   Scattered Clouds
1:53 PM 84.9 °F 91.4 °F 73.0 °F 67% 29.94 in 10.0 mi West 10.4 mph - N/A   Scattered Clouds
2:53 PM 86.0 °F 92.2 °F 72.0 °F 63% 29.93 in 10.0 mi West 10.4 mph 17.3 mph N/A   Clear
3:53 PM 84.9 °F 91.4 °F 73.0 °F 67% 29.91 in 10.0 mi WNW 10.4 mph - N/A   Partly Cloudy
4:53 PM 84.0 °F 89.6 °F 72.0 °F 67% 29.89 in 10.0 mi WNW 12.7 mph - N/A   Clear
5:53 PM 84.0 °F 89.6 °F 72.0 °F 67% 29.91 in 10.0 mi West 11.5 mph 17.3 mph N/A   Partly Cloudy
6:53 PM 82.9 °F 87.0 °F 70.0 °F 65% 29.93 in 10.0 mi NNW 8.1 mph - N/A   Clear
7:53 PM 82.0 °F 86.3 °F 71.1 °F 69% 29.92 in 10.0 mi NNW 4.6 mph - N/A   Clear
8:53 PM 79.0 °F - 69.1 °F 72% 29.93 in 10.0 mi NNE 4.6 mph - N/A   Clear
9:53 PM 78.1 °F - 70.0 °F 76% 29.95 in 10.0 mi Calm Calm - N/A   Partly Cloudy
10:53 PM 77.0 °F - 70.0 °F 79% 29.95 in 10.0 mi Calm Calm - N/A   Clear
11:53 PM 75.0 °F - 70.0 °F 84% 29.96 in 10.0 mi East 4.6 mph - N/A   Clear